Regional Weather Roundup
Issued by NWS

Home | Current Version | Previous Version | Text Only | Print | Product List | Glossary Off
Versions: 1 2 3 4 5 6 7 8 9 10 11 12 13 14 15 16 17 18 19 20 21 22 23 24 25 26 27 28 29 30 31 32 33 34 35 36 37 38 39 40 41 42 43 44 45 46 47 48 49 50

000
ASUS43 KLMK 232210
RWRKY
NATIONAL WEATHER SERVICE LOUISVILLE KY
500 PM EST SUN NOV 23 2014

NOTE "FAIR" INDICATES FEW OR NO CLOUDS BELOW 12,000 FEET
WITH NO SIGNIFICANT WEATHER AND/OR OBSTRUCTIONS TO VISIBILITY.

KYZ001>023-026-027-061>063-070>075-232300-
WESTERN AND SOUTH CENTRAL KENTUCKY

CITY           SKY/WX    TMP DP  RH WIND       PRES   REMARKS
PADUCAH        RAIN      56  55  97 SE7       29.32F FOG
HENDERSON      CLOUDY    55  54  94 SE8       29.38F
OWENSBORO      LGT RAIN  57  56  97 S12       29.41F FOG
HOPKINSVILLE   LGT RAIN  59  59 100 SE12G20   29.37F
BOWLING GREEN  RAIN      59  55  87 SE12      29.45F FOG
GLASGOW        LGT RAIN  56  56 100 SE10      29.47F
$$

KYZ024-025-028>034-038-045-046-053-232300-
NORTH CENTRAL KENTUCKY

CITY           SKY/WX    TMP DP  RH WIND       PRES   REMARKS
LOUISVILLE/SDF LGT RAIN  54  52  93 SE10      29.50F
LOUISVILLE/LOU LGT RAIN  54  52  93 SE8       29.50F
FORT KNOX      LGT RAIN  54  52  94 E10       29.47F FOG
$$

KYZ035>037-039>044-047>052-055>060-089>105-232300-
NORTHEAST KENTUCKY

CITY           SKY/WX    TMP DP  RH WIND       PRES   REMARKS
LEXINGTON      LGT RAIN  53  52  96 SE16      29.56F FOG
COVINGTON      RAIN      54  50  86 SE21G31   29.55F FOG
FRANKFORT      LGT RAIN  54  51  90 SE13G23   29.53F FOG
$$

KYZ054-064>069-076>088-106>120-232300-
SOUTHEAST KENTUCKY

CITY           SKY/WX    TMP DP  RH WIND       PRES   REMARKS
JACKSON        CLOUDY    54  50  86 SE7       29.65F
LONDON         LGT RAIN  59  51  75 SE13G20   29.59F
SOMERSET       LGT RAIN  54  54 100 SE5       29.56F
MIDDLESBORO    RAIN      55  51  88 CALM      29.66F
MONTICELLO     CLOUDY    57  54  90 SE14G21   29.55F FOG
$$




USA.gov is the U.S. government's official web portal to all federal, state and local government web resources and services.